sat.trackr.live / text

‹ back to catalog

STARLINK-6336

NORAD 56788 · 2023-078X

PAYLOAD ACTIVE UNKNOWN

§ Identity

Operator
Country
US
Launch date
2023-05-31
Launch site
AFWTR
Launch vehicle
Mass (kg)
RCS (m²)

Purposes: comms

External: N2YO · Heavens-Above · Gunter

§ Orbital elements

Epoch: 2026-05-25T03:15:24.277824Z

Period
96.11 min
Inclination
69.9979°
Eccentricity
0.0003558
Mean motion
14.98337268 rev/d
Perigee alt
569.6 km
Apogee alt
574.5 km
Semi-major
6,950.2 km
B*
-4.2039e-4
RAAN
131.7398°
Arg perigee
267.9932°
Mean anomaly
92.0820°
Rev number
16,462

§ Raw data

STARLINK-63361 56788U 23078X   26145.13569766 -.00005107  00000+0 -42039-3 0  99902 56788  69.9979 131.7398 0003558 267.9932  92.0820 14.98337268164627

JSON: /api/v1/satellites/56788 · /tle

For live sub-satellite position, see the globe view (requires WebGL).

§ Visibility from observer

Set your observer location to see the next 7 days of passes ≥ 10°. The values pass through the URL so the page stays shareable.

No JS? Fill the form by hand. The geolocation button needs JavaScript.